星链-4272 (STARLINK-4272 )

导读 | 豆包AI

STARLINK-4272是美国太空探索技术公司SpaceX星链互联网卫星项目中的一颗卫星,于2022年6月17日发射升空。星链计划旨在构建全球卫星互联网星座,为全球偏远、欠发达地区提供高速网络接入服务,该卫星入轨后将服务于星链系统的全球覆盖网络建设。

Basic Information
目录编号:
52866
目录名称:
STARLINK-4272
国际标识:
2022-062AN
轨道中心:
EARTH
卫星名称:
星链-4272
卫星全名:
星链-4272 (STARLINK-4272 )
卫星状态:
在轨 (已飞行1413 天)
发射日期:
2022-06-17 UTC
国别 :
美国 (US)
星等 :
--
Orbit Information
数据来源 国际轨道数据 AOE轨道数据
星历时间 2026-04-30T22:16:41+0800
6小时前
查看轨道信息
2026-04-26T08:00:00+0800
4天前
查看轨道信息
半长轴 6917.888km 6917.889km
偏心率 0.0001209 0.0001451
轨道倾角 53.217° 53.215°
近地点辐角 79.934° 59.011°
升交点赤经 151.110° 171.741°
平近点角 280.179° 168.740°
近地点 538.914km 538.748km
远地点 540.588km 540.756km
周期 95.438分钟 95.438分钟
每日圈数 15.088378 15.088372
Detailed Information
固有亮度:
5
最大亮度:
2.5
卫星平台:
Starlink v1.5
覆盖范围:
全球
运营商:
太空探索技术公司
运营商所在国:
美国
制造商(研发单位):
太空探索技术公司
制造商所在国:
美国
使用方式:
暂无
Satellite Introduction
星链(Starlink)计划是由太空探索技术公司(SpaceX)提出的一个巨型低轨卫星互联网星座项目,计划在2019年至2024年间在太空搭建由约1.2万颗卫星组成的“星链”网络,其中1584颗将部署在地球上空550千米处的近地轨道,并从2020年开始工作。该卫星仍在工作。
2D Orbit Map
3D Orbit Map
Orbit Altitude Analysis Chart
Orbit Inclination Analysis Chart
Orbit Comprehensive Analysis Chart
View Comprehensive Chart